sat.trackr.live / text

‹ back to catalog

STARLINK-31136

NORAD 58772 · 2024-011H

PAYLOAD ACTIVE UNKNOWN

§ Identity

Operator
Country
US
Launch date
2024-01-14
Launch site
AFWTR
Launch vehicle
Mass (kg)
RCS (m²)

Purposes: comms

External: N2YO · Heavens-Above · Gunter

§ Orbital elements

Epoch: 2026-05-25T01:33:01.456416Z

Period
94.11 min
Inclination
53.1607°
Eccentricity
0.0001244
Mean motion
15.30196846 rev/d
Perigee alt
474.4 km
Apogee alt
476.1 km
Semi-major
6,853.4 km
B*
7.5135e-5
RAAN
18.9181°
Arg perigee
84.8052°
Mean anomaly
275.3091°
Rev number
13,195

§ Raw data

STARLINK-311361 58772U 24011H   26145.06460019  .00001866  00000+0  75135-4 0  99962 58772  53.1607  18.9181 0001244  84.8052 275.3091 15.30196846131958

JSON: /api/v1/satellites/58772 · /tle

For live sub-satellite position, see the globe view (requires WebGL).

§ Visibility from observer

Set your observer location to see the next 7 days of passes ≥ 10°. The values pass through the URL so the page stays shareable.

No JS? Fill the form by hand. The geolocation button needs JavaScript.